Location: Unspecified
(43.8688°N, 3.6914°E)
Time: 20:29:23
(UTC+02:00)

ISS - Visible Passes

Search period start: 28 May 2017 00:00
Search period end: 07 June 2017 00:00
Orbit: 402 x 408 km, 51.6° (Epoch: 29 May)

Date Brightness Start Highest point End Pass type
(mag) Time Alt. Az. Time Alt. Az. Time Alt. Az.
28 May -1.1 00:05:45 10° WNW 00:08:23 21° N 00:11:01 10° NE visible
28 May -1.5 01:42:47 10° NW 01:45:37 25° NNE 01:47:24 16° ENE visible
28 May -1.5 03:19:08 10° WNW 03:19:56 16° WNW 03:19:56 16° WNW visible
28 May -1.4 23:13:21 10° WNW 23:16:09 25° NNW 23:18:56 10° NE visible
29 May -1.3 00:50:44 10° NW 00:53:23 22° N 00:56:00 10° ENE visible
29 May -1.8 02:27:07 10° NW 02:28:36 24° NW 02:28:36 24° NW visible
29 May -1.8 22:20:56 10° W 22:23:56 31° NNW 22:26:56 10° NE visible
29 May -1.1 23:58:33 10° NW 00:01:08 20° N 00:03:41 10° NE visible
30 May -2.2 01:35:09 10° NW 01:37:46 35° N 01:37:46 35° N visible
30 May -1.2 23:06:15 10° NW 23:08:50 21° N 23:11:26 10° NE visible
31 May -1.8 00:43:09 10° NW 00:46:03 28° NNE 00:47:06 23° NE visible
31 May -0.9 02:19:30 10° WNW 02:19:43 11° WNW 02:19:43 11° WNW visible
31 May -1.3 22:13:50 10° WNW 22:16:34 23° N 22:19:17 10° NE visible
31 May -1.5 23:51:05 10° NW 23:53:49 23° N 23:56:31 10° ENE visible
01 Jun -1.9 01:27:26 10° NW 01:29:09 28° NW 01:29:09 28° NW visible
01 Jun -1.3 22:58:54 10° NW 23:01:31 21° N 23:04:06 10° NE visible
02 Jun -2.8 00:35:25 10° NW 00:38:35 43° NNE 00:38:38 43° NNE visible
02 Jun -1.2 22:06:36 10° NW 22:09:11 21° N 22:11:45 10° NE visible
02 Jun -2.1 23:43:23 10° NW 23:46:22 31° NNE 23:48:09 18° ENE visible
03 Jun -1.4 01:19:47 10° WNW 01:20:48 18° WNW 01:20:48 18° WNW visible
03 Jun -1.7 22:51:19 10° NW 22:54:06 24° NNE 22:56:53 10° ENE visible
04 Jun -3.3 00:27:39 10° WNW 00:30:21 56° NW 00:30:21 56° NW visible
04 Jun -1.5 21:59:08 10° NW 22:01:47 21° N 22:04:25 10° ENE visible
04 Jun -3.1 23:35:34 10° NW 23:38:48 50° NNE 23:39:56 33° E visible
05 Jun -0.9 01:12:23 10° W 01:12:35 11° W 01:12:35 11° W visible
05 Jun -2.4 22:43:31 10° NW 22:46:34 34° NNE 22:49:32 10° E visible
06 Jun -2.6 00:19:58 10° WNW 00:22:11 33° W 00:22:11 33° W visible
06 Jun -3.9 23:27:45 10° WNW 23:31:03 81° SW 23:31:49 49° SE visible
